Regional Weather Roundup
Issued by NWS Little Rock, AR

Home | Current Version | Previous Version | Graphics & Text | Print | Product List | Glossary On
Versions: 1 2 3 4 5 6 7 8 9 10 11 12 13 14 15 16 17 18 19 20 21 22 23 24 25 26 27 28 29 30 31 32 33 34 35 36 37 38 39 40 41 42 43 44 45 46 47 48 49 50
076
ASUS44 KLZK 221305
RWRLZK

WEATHER ROUNDUP FOR ARKANSAS
NATIONAL WEATHER SERVICE LITTLE ROCK AR
800 AM CDT SUN OCT 22 2017

NOTE: "FAIR" INDICATES FEW OR NO CLOUDS BELOW 12,000 FEET WITH NO
SIGNIFICANT WEATHER AND/OR OBSTRUCTIONS TO VISIBILITY.

ARZ001-003-010-029-221400-
NORTHWEST ARKANSAS

CITY           SKY/WX    TMP DP  RH WIND       PRES   REMARKS
FAYETTEVILLE   RAIN      57  57 100 NW7       30.03R FOG
FORT SMITH     CLOUDY    60  59  96 W13       30.05R
HARRISON       LGT RAIN  57  57 100 W3        30.00R
BENTONVILLE    LGT RAIN  54  52  93 NW9       30.06R
ROGERS         LGT RAIN  54  53  97 W8        30.05R FOG
SILOAM SPGS    CLOUDY    54  53  97 NW12      30.06R
HIGHFILL       CLOUDY    54  54 100 NW8       30.05R
SPRINGDALE     LGT RAIN  55  55 100 W13       30.05R FOG
$$

ARZ004-005-016-221400-
NORTH CENTRAL ARKANSAS

CITY           SKY/WX    TMP DP  RH WIND       PRES   REMARKS
BATESVILLE     LGT RAIN  60  59  96 E6        29.98F
FLIPPIN        CLOUDY    59  58  96 SW3       29.98R
MTN HOME       MOCLDY    58  58 100 CALM      29.96R
$$

ARZ040-041-221400-
WEST CENTRAL ARKANSAS

CITY           SKY/WX    TMP DP  RH WIND       PRES   REMARKS
MENA           CLOUDY    59  59 100 CALM      30.04S
$$

ARZ009-017-025-026-028-221400-
NORTHEAST ARKANSAS

CITY           SKY/WX    TMP DP  RH WIND       PRES   REMARKS
JONESBORO      LGT RAIN  62  61  96 CALM      30.00R
NEWPORT        LGT RAIN  60  59  96 SW6       30.02R
WALNUT RIDGE   LGT RAIN  60  59  96 S3        29.98F
BLYTHEVILLE    CLOUDY    70  64  81 S14G22    29.98S
$$

ARZ022-023-033-042-044-221400-
CENTRAL ARKANSAS

CITY           SKY/WX    TMP DP  RH WIND       PRES   REMARKS
LITTLE ROCK    LGT RAIN  59  59 100 SW3       30.02F
N LITTLE ROCK    N/A     59  58  96 CALM      30.02R
JACKSONVILLE   LGT RAIN  60  60  99 S3        30.01R
SEARCY         LGT RAIN  61  61 100 MISG        N/A
HOT SPRINGS    LGT RAIN  60  59  96 CALM      30.05R
RUSSELLVILLE   LGT RAIN  58  58 100 CALM      30.01R
CLINTON        CLOUDY    59  59 100 SW5       30.01R
$$

ARZ036-221400-
EAST ARKANSAS

CITY           SKY/WX    TMP DP  RH WIND       PRES   REMARKS
WEST MEMPHIS   CLOUDY    70  66  87 S17       29.98R
$$

ARZ050-053-066-070-073-221400-
SOUTHWEST ARKANSAS

CITY           SKY/WX    TMP DP  RH WIND       PRES   REMARKS
ARKADELPHIA    LGT RAIN  59  58  96 CALM      30.05F
CAMDEN         DRIZZLE   59  57  94 CALM      30.05F
TEXARKANA      LGT RAIN  58  58 100 SE8       30.02F
EL DORADO      LGT RAIN  59  59 100 CALM      30.09F
DE QUEEN       CLOUDY    59  59 100 W6        30.04R
$$

ARZ056-057-069-221400-
SOUTHEAST ARKANSAS

CITY           SKY/WX    TMP DP  RH WIND       PRES   REMARKS
PINE BLUFF     CLOUDY    60  59  96 SW10      30.04S
STUTTGART      LGT RAIN  61  59  93 W3        30.04S
MONTICELLO     LGT RAIN  61  58  90 W5        30.06R

$$






USA.gov is the U.S. government's official web portal to all federal, state and local government web resources and services.